{"data":{"norad_id":65962,"epoch":"2026-05-25T00:25:35.899104Z","epoch_age_seconds":83668,"freshness":"FRESH","line1":"1 65962U 25228R   26145.01777661  .00016163  00000+0  21363-2 0  9993","line2":"2 65962  51.9010  10.6279 0001095  64.5400 295.5676 14.80086158 34700","mean_motion":14.80086158,"eccentricity":0.0001095,"inclination_deg":51.901,"raan_deg":10.6279,"arg_perigee_deg":64.54,"mean_anomaly_deg":295.5676,"bstar":0.0021363,"rev_number":3470,"period_min":97.291633478002,"perigee_km":628.28490179781,"apogee_km":629.8194762302,"semimajor_km":7007.189189014,"source":"CELESTRAK","updated_at":"2026-05-25T13:38:05.848933Z"}}